Location: Jackson Park
(37.2862°N, 79.9123°W)
Time: 14:49:15
(UTC+00:00)

Vanguard 2 - Pass Details

Date: 15 May 2026
Orbit: 553 x 2894 km, 32.9° (Epoch: 6 June)

Event Time Altitude Azimuth Distance (km) Brightness Sun altitude
Rises 10:24:28 0° 271° (W) 6,732 11.7 1.6°
Reaches altitude 10° 10:29:05 10° 270° (W) 5,666 11.4 2.5°
Maximum altitude 10:45:54 71° 191° (S) 2,432 10.1 5.6°
Drops below altitude 10° 10:57:12 10° 110° (ESE) 3,973 12.1 7.7°
Sets 10:59:52 0° 108° (ESE) 4,692 12.5 8.2°
